Location: Kraków
(50.0647°N, 19.9450°E)
Time: 12:47:39
(UTC+01:00)

ISS - Visible Passes

Search period start: 24 March 2019 00:00
Search period end: 03 April 2019 01:00
Orbit: 408 x 411 km, 51.6° (Epoch: 24 March)

Date Brightness Start Highest point End Pass type
(mag) Time Alt. Az. Time Alt. Az. Time Alt. Az.
24 Mar -3.8 19:33:04 10° SW 19:36:20 59° SSE 19:37:09 42° E visible
24 Mar -0.6 21:09:39 10° W 21:09:56 12° W 21:09:56 12° W visible
25 Mar -3.2 18:42:37 10° SW 18:45:45 40° SSE 18:48:51 10° E visible
25 Mar -3.1 20:18:56 10° W 20:21:38 54° WNW 20:21:38 54° WNW visible
26 Mar -3.9 19:28:14 10° WSW 19:31:33 88° NNW 19:33:13 27° ENE visible
26 Mar -1.1 21:04:59 10° W 21:05:59 18° WNW 21:05:59 18° WNW visible
27 Mar -3.8 18:37:35 10° WSW 18:40:53 71° SSE 18:44:11 10° ENE visible
27 Mar -3.5 20:14:16 10° W 20:17:27 63° NNW 20:17:27 63° NNW visible
28 Mar -3.6 19:23:30 10° W 19:26:49 68° N 19:28:51 21° ENE visible
28 Mar -1.4 21:00:14 10° WNW 21:01:37 23° WNW 21:01:37 23° WNW visible
29 Mar -3.7 18:32:45 10° W 18:36:04 79° NNW 18:39:23 10° ENE visible
29 Mar -3.7 20:09:31 10° WNW 20:12:49 69° N 20:12:58 67° NNE visible
30 Mar -3.5 19:18:45 10° W 19:22:03 64° N 19:24:16 19° E visible
30 Mar -1.7 20:55:25 10° WNW 20:57:01 26° W 20:57:01 26° W visible
31 Mar -4.0 21:04:40 10° WNW 21:08:00 90° E 21:08:18 71° ESE visible
01 Apr -3.7 20:13:55 10° WNW 20:17:14 74° N 20:19:35 18° E visible
01 Apr -1.8 21:50:36 10° W 21:52:20 25° W 21:52:20 25° W visible
02 Apr -3.6 20:59:47 10° WNW 21:03:03 56° SSW 21:03:36 48° SSE visible
